GFSFLT1_con_sbcape_000.txt.gz
CAPE
165 125 147 245 166 471 1223 1604 1560 1750 1173 770 0 0 0 0 0 0 0 0 0 0 0 0 0 0 0 0 0 0 0 0 0
63 91 146 190 251 460 924 1319 1536 1692 910 443 14 0 0 0 0 1 0 0 0 0 0 0 0 0 0 0 0 0 0 4 69
0 46 155 184 259 452 1062 1189 1563 1705 923 528 117 8 0 0 8 11 0 0 0 0 0 0 0 0 0 0 0 0 0 0 0
0 21 38 195 269 392 1094 1200 1463 1711 1103 762 246 152 0 19 72 14 1 0 0 0 0 0 21 23 4 0 0 0 18 13 0
1 0 41 88 166 235 825 1063 1477 1611 1377 1015 593 362 123 159 236 66 21 16 2 0 0 0 0 0 0 0 0 1 13 49 45
0 0 0 29 37 117 501 883 1354 1481 1482 1245 858 580 248 65 30 14 26 28 8 0 0 0 0 0 0 0 0 0 7 23 68
0 0 0 22 65 58 379 817 1182 1420 1441 1319 836 543 395 15 0 0 11 25 9 0 0 0 0 0 0 0 0 0 17 46 124
10 4 15 3 153 205 535 779 1018 1316 1387 1137 673 574 374 70 5 0 0 9 0 0 0 0 0 0 0 0 0 25 138 148 95
0 51 571 47 218 572 873 931 1062 1076 1098 998 578 418 377 164 85 23 12 28 27 11 16 4 0 11 43 13 19 157 63 12 4
0 1 29 685 632 800 1105 1227 1105 816 757 604 369 281 244 191 155 83 95 127 72 75 58 16 7 53 8 26 74 60 19 29 0
0 0 0 0 611 752 1168 1536 1173 615 223 281 253 177 254 324 323 241 223 156 130 158 209 191 155 56 36 139 50 115 176 14 0
0 0 0 0 16 365 802 1354 1020 246 199 200 196 164 217 363 450 402 273 221 214 288 246 159 58 83 43 39 66 69 134 5 0
0 15 73 225 313 1274 1081 1070 441 365 234 140 141 184 293 366 399 362 282 279 383 447 440 227 312 152 105 0 58 10 0 0 0
49 196 384 472 1447 1674 1031 493 513 329 171 266 192 204 187 231 523 375 338 437 658 629 269 0 0 9 24 13 0 0 0 0 0
0 0 174 411 1449 1648 866 551 637 322 242 124 150 65 33 0 0 179 679 887 669 134 38 13 0 1 21 3 0 0 0 0 0
0 0 3 271 866 1164 777 738 140 3 0 0 2 0 15 0 0 0 0 180 329 151 16 0 0 25 30 0 0 0 0 0 0
879 750 515 1111 459 161 0 1 0 0 39 0 0 0 0 0 0 0 47 178 115 82 76 13 7 0 0 0 0 0 0 0 0
478 252 192 306 384 40 0 0 0 0 0 0 0 0 0 2 14 104 27 0 0 0 0 0 0 0 0 0 0 0 0 0 0
284 204 117 59 147 26 0 0 0 0 0 0 0 0 0 1 166 33 0 0 1 0 0 0 0 0 0 0 0 0 0 0 0
205 70 40 72 39 1 5 0 0 0 0 0 0 33 97 5 17 0 0 0 0 0 0 0 0 0 0 0 0 0 0 0 0

GFSFLT1_con_sbcape_003.txt.gz
CAPE
130 193 248 661 741 604 603 1168 1399 1711 1748 1601 852 373 83 0 0 0 0 0 0 0 0 0 0 0 0 0 0 0 0 0 0
61 142 138 661 828 619 728 1170 1440 1676 1840 1654 521 40 0 0 0 0 0 0 0 0 0 0 0 0 0 0 0 0 0 0 0
11 119 115 415 775 475 882 1188 1442 1524 1731 1662 619 0 0 0 0 0 0 0 0 0 0 0 0 0 0 0 0 0 0 0 0
2 54 93 188 424 373 628 1148 1407 1475 1496 1383 674 36 0 0 0 0 0 0 0 0 0 0 0 0 0 0 0 0 0 0 0
0 2 60 132 228 321 347 678 1081 1344 1406 1109 687 154 3 0 0 0 0 0 0 0 0 0 0 0 0 0 0 0 0 0 0
0 0 17 113 165 259 313 612 939 1172 1429 1178 802 229 56 4 45 24 0 0 0 0 0 0 0 0 0 0 0 0 0 0 0
0 0 0 8 160 255 325 410 914 1129 1504 1410 1028 483 237 64 79 68 28 0 0 0 0 0 0 0 0 0 0 0 0 0 0
0 0 0 0 6 67 188 273 736 1082 1447 1530 1177 828 478 222 140 51 25 0 0 0 0 0 0 0 0 0 0 0 0 4 49
0 0 0 0 0 6 28 165 629 935 1363 1572 1275 956 759 301 113 15 1 0 0 0 0 0 0 0 0 0 0 0 16 44 25
0 0 22 0 0 0 41 179 556 789 1198 1444 1224 1153 607 230 191 23 0 0 0 1 1 0 0 0 0 0 0 0 2 11 0
0 0 24 238 56 19 292 455 682 763 1049 1176 1069 829 455 313 296 143 6 0 0 17 32 1 6 1 0 0 0 0 0 5 0
0 0 0 25 441 540 364 783 952 780 739 887 833 505 206 235 226 249 61 7 70 126 12 37 57 42 0 0 0 6 15 10 0
0 0 0 1 2 266 435 449 1081 614 411 512 579 536 313 240 150 197 86 137 201 232 103 79 73 126 0 0 13 21 0 0 0
0 6 79 117 466 894 857 697 678 512 300 444 487 365 217 166 52 102 175 93 20 4 147 76 169 301 164 65 13 5 0 0 0
0 0 0 16 381 1149 683 467 507 202 258 221 212 213 107 1 0 5 1 0 0 0 5 48 0 61 14 7 0 0 0 0 0
216 299 245 213 322 1024 592 373 271 112 81 208 184 115 0 0 0 0 0 0 0 0 1 0 0 0 3 8 0 0 0 0 0
456 289 288 450 564 525 352 186 165 14 81 20 45 0 0 0 0 0 0 0 5 184 73 14 0 2 34 0 0 0 0 0 0
295 136 141 321 159 76 73 118 22 0 0 0 0 0 0 0 0 0 41 1 2 15 0 0 0 0 0 0 0 0 0 0 0
80 8 51 44 2 0 4 5 0 0 0 0 0 0 0 0 0 38 7 0 1 0 3 0 0 0 0 0 0 0 0 0 0
68 15 18 13 0 0 0 0 0 0 0 0 0 0 0 0 0 2 0 0 0 0 0 0 0 0 0 0 0 0 0 0 0

GFSFLT1_con_sbcape_006.txt.gz
CAPE
105 161 230 185 116 133 157 340 445 693 791 841 1114 1333 1266 1032 334 0 0 0 0 0 0 0 0 0 0 0 0 0 0 0 0
58 135 218 361 223 184 216 349 546 783 1006 1060 1112 1179 1084 328 13 0 0 0 0 0 0 0 0 0 0 0 0 0 0 0 0
21 69 251 328 430 391 368 417 625 843 1083 1221 1179 963 564 187 0 0 0 0 0 0 0 0 0 0 0 0 0 0 0 0 0
0 8 113 200 567 651 577 547 653 895 1177 1370 1273 731 220 56 0 0 0 0 0 0 0 0 0 0 0 0 0 0 0 0 0
0 0 84 126 559 715 741 671 709 980 1230 1445 1524 852 123 8 0 0 0 0 0 0 0 0 0 0 0 0 0 0 0 0 0
0 1 31 78 296 614 670 632 882 1089 1317 1408 1536 982 34 6 0 2 2 0 0 0 0 0 0 0 0 0 0 0 0 0 0
0 0 15 63 114 285 402 392 653 1065 1321 1365 1306 662 73 22 13 14 19 0 0 0 0 0 0 0 0 0 0 0 0 0 0
0 0 0 21 127 161 236 306 377 695 1010 1240 1137 533 218 138 44 18 3 0 1 0 0 0 0 0 0 0 0 0 0 0 0
0 0 0 0 20 99 162 172 163 581 897 1087 1222 866 494 409 149 101 87 37 1 0 0 0 0 0 0 0 0 0 0 0 0
0 0 0 0 0 0 0 0 79 448 781 1038 1252 1049 792 572 173 72 0 0 9 0 0 0 0 0 0 0 0 0 0 0 22
0 0 0 0 0 0 0 0 37 291 592 964 1265 1151 1013 442 113 46 0 0 0 4 1 0 0 0 2 0 9 2 0 1 21
0 0 0 28 1 0 0 16 137 368 609 940 1156 1146 866 489 240 73 64 43 0 0 0 0 17 23 16 30 73 31 4 0 0
0 0 0 7 109 73 194 198 441 497 571 798 1005 931 782 546 455 115 0 4 0 0 0 0 58 16 3 4 4 2 0 0 0
0 1 38 79 259 480 390 356 520 590 444 696 676 540 584 615 447 307 26 0 0 0 10 24 46 0 0 30 24 6 0 0 0
2 13 57 63 108 340 603 454 563 520 557 402 381 274 132 34 43 27 0 0 0 0 11 9 27 22 1 0 0 0 0 0 0
37 116 162 301 375 483 296 307 354 421 86 165 41 0 0 0 0 0 0 0 0 0 0 2 20 72 48 55 0 0 0 0 0
51 68 140 201 203 191 115 59 30 2 37 8 0 0 0 0 0 0 0 0 0 0 0 0 17 91 67 2 0 0 0 0 0
44 17 78 84 81 53 97 40 1 11 2 0 0 0 0 0 0 0 0 0 0 0 0 12 13 0 0 0 0 0 0 0 0
1 40 23 2 0 69 5 0 0 0 0 17 20 0 0 0 0 0 0 2 2 0 0 0 1 1 0 0 0 0 0 0 0
0 5 117 66 0 0 0 0 0 0 0 0 0 4 0 0 0 0 0 2 1 0 0 0 0 0 0 0 0 0 0 0 0

GFSFLT1_con_sbcape_009.txt.gz
CAPE
182 218 268 380 532 864 869 911 1065 1210 1767 2178 1823 1881 2507 2649 2770 2438 2095 1660 1002 906 934 637 265 314 359 530 173 86 220 219 223
229 307 476 528 605 693 1070 1171 1521 1704 1985 2183 1887 1858 2448 2457 2596 2406 2059 1342 819 821 793 244 256 293 396 178 0 52 271 63 214
258 448 606 661 969 891 1146 1157 1383 1516 1913 2172 2138 1882 2244 2368 2462 2266 2119 1355 569 487 438 230 293 326 182 50 4 18 264 91 83
253 464 748 993 1076 1044 1166 1218 1321 1593 1621 1992 1980 2082 2552 2518 2250 1925 1821 1224 342 274 334 275 308 329 123 81 48 65 168 226 97
77 520 872 862 1027 1107 1106 1329 1210 1420 1521 1625 2266 2435 2502 2125 1902 1710 874 1157 145 356 24 210 205 242 194 147 103 145 270 228 0
98 289 515 848 972 1408 1296 1372 1769 1506 1806 1750 1846 2296 2036 1893 1374 989 1538 216 123 136 205 168 78 174 228 187 199 360 438 327 109
114 144 628 779 952 1650 1825 1992 2098 2052 1929 1847 1889 1979 2062 1845 1358 1381 467 280 330 169 150 336 215 153 277 272 324 290 169 19 155
108 169 383 799 1025 1743 2044 2149 2036 1991 1846 2162 2251 2388 2189 1973 1365 1028 1054 394 65 2 0 57 61 125 134 217 158 30 46 125 277
191 202 351 657 907 1065 1331 1644 1628 1556 1855 2149 2357 2562 2276 1925 1572 1045 723 201 108 1 0 0 11 1 87 253 65 0 0 36 360
494 470 409 600 992 1252 1121 1145 1298 1313 1560 1764 2155 2434 2204 1881 1594 1066 686 356 214 83 20 0 0 0 14 421 380 5 0 0 216
542 694 678 560 382 609 795 828 914 1150 1437 1998 2252 2298 2212 1924 1571 1088 681 566 440 149 11 157 3 16 227 643 455 26 0 0 181
154 204 343 501 379 361 527 538 800 1135 1424 1746 2018 2227 2302 2128 1654 1150 883 804 351 495 162 102 176 127 185 294 310 2 0 4 112
83 226 482 717 541 554 641 807 904 1247 1483 1721 2006 2155 2285 2225 1627 1386 951 702 299 267 145 21 95 139 417 368 929 15 2 15 73
457 528 682 1067 1181 1180 1229 1172 1548 1778 1766 1846 2053 2219 2242 1951 1513 1352 1210 576 441 302 226 5 58 277 560 258 281 297 0 6 281
450 477 475 680 1030 1207 1394 1534 1828 1963 1795 1535 1850 1919 1824 1345 1348 715 385 274 191 435 271 11 1 66 47 80 196 3 0 0 3
601 795 923 1047 1231 1241 1225 1380 1614 1592 1408 1309 1506 1612 1167 912 969 556 236 230 151 53 16 42 2 32 70 112 118 72 0 0 1
712 865 959 993 1154 1198 980 930 927 1095 787 1104 1115 1024 822 922 932 590 411 277 198 361 112 27 7 88 217 380 351 178 4 0 0
668 745 756 930 1251 1176 891 896 894 868 864 814 847 853 663 511 369 454 277 78 1 11 50 0 36 69 477 515 377 136 4 0 1
158 453 815 921 982 918 674 776 704 703 748 711 701 601 380 193 9 7 0 0 1 0 0 0 0 0 71 0 0 0 0 0 0
0 0 70 654 732 694 738 774 800 724 722 725 659 616 332 86 21 147 51 0 0 0 0 0 0 0 0 0 0 0 0 0 0

GFSFLT1_con_sbcape_015.txt.gz
CAPE
90 540 719 283 395 900 1346 1376 2331 2589 3494 4413 4544 4256 4532 4568 4641 2714 2328 2773 1582 771 633 856 2807 1666 1157 463 619 653 628 268 132
24 362 666 449 267 379 982 1342 2195 2641 3483 4139 4334 3238 4648 4682 4617 4462 2654 3201 3465 1702 1741 703 1153 1645 1021 616 663 706 777 162 550
10 130 633 531 332 354 897 882 1501 2422 3071 3942 3641 3764 4137 3927 4284 4659 4431 4495 4161 2856 2343 1931 2078 1412 960 705 710 637 581 634 372
18 61 501 651 395 399 634 679 1041 1654 2295 3220 3457 3581 3696 3833 3711 3851 4517 4317 4078 3805 2606 2670 1907 1950 1123 668 926 373 429 512 293
50 44 261 608 541 500 576 899 769 1037 1522 1582 2649 3060 3814 3886 4009 3961 3808 4364 4249 4189 3441 2714 2356 2032 1410 1112 850 777 660 459 226
32 67 84 518 666 695 761 879 1170 865 1374 1084 1462 2811 3043 3697 3691 4136 3873 4406 4276 4181 3661 3144 1741 1717 1115 1202 597 401 496 867 888
0 3 484 375 774 1326 1436 1667 1856 1737 1423 1058 1345 1798 2101 3089 3737 3765 3893 4382 4290 4343 4014 3034 1692 1906 1458 1008 351 426 276 586 597
0 0 195 866 1099 2330 2724 2519 2651 2527 2100 2269 1811 2401 2431 2942 3741 3980 4128 4119 4437 4395 3657 2711 1965 1760 1415 887 460 265 75 503 571
0 3 21 937 1220 1703 3066 3016 3326 3262 3071 3059 2789 3370 3204 3519 4338 4131 4172 4404 4527 4369 3764 2785 2092 1564 1118 460 153 0 94 533 597
0 1 67 250 1117 1533 2412 2500 3635 3523 3828 3418 3640 3969 4528 4299 4818 4753 4784 4624 4542 4130 3722 2411 1792 1311 737 456 100 0 0 0 247
59 187 235 176 963 1521 2558 2276 2394 3080 3080 4214 4333 4608 4476 4761 4835 5073 4932 4553 4347 3739 2676 1743 1703 1306 587 199 250 0 0 0 83
42 38 166 170 1198 1483 3009 2948 3527 3654 3475 3969 4236 4439 4584 4673 4739 4768 4779 4271 3805 2849 2050 1571 1072 828 521 479 868 0 0 0 0
7 255 233 362 1421 1681 2672 3228 2600 3233 2973 3309 3641 3906 3859 4359 4452 4606 4203 3782 3163 2827 2245 1420 795 570 353 221 776 5 0 0 330
66 471 456 1544 1925 2759 3292 2861 2643 3613 3404 3197 3024 2911 3007 3634 3816 4184 4108 3652 2891 2463 2136 1409 1008 554 659 916 913 659 0 0 175
909 897 1233 1825 2308 2468 2829 2986 3299 3752 3564 3535 3709 3708 3664 3754 4074 3356 3115 3084 2569 2033 1240 712 567 677 826 1168 1413 432 0 0 8
1757 1804 1699 1759 2036 2295 2691 3120 3176 3710 4618 4303 4160 3959 4254 3999 3467 2721 2650 2371 1872 1391 895 592 586 729 1384 1439 883 1303 0 0 0
1557 1756 1849 1921 2077 2249 3248 3616 3475 3606 3349 3481 3520 3739 2930 2683 2344 1862 1717 1652 1234 875 806 818 911 1069 1198 1079 874 122 342 27 0
1091 1064 1135 1471 1831 2059 2420 2687 2689 2731 2937 3178 3075 2183 1732 1554 1334 1407 726 165 404 821 52 340 1073 840 1107 735 615 528 130 35 99
1276 1137 1151 1271 1580 1969 2418 2587 2684 2769 2915 2721 2375 2120 1744 1574 1409 713 390 39 2 0 0 2 0 0 92 0 0 0 0 0 0
54 671 1183 1323 1537 1791 2182 2248 2305 2396 2576 2507 2479 2157 2148 1569 1393 1125 1127 953 811 418 0 0 0 0 0 0 0 0 0 0 0